This demonstration page uses our WeatherBlox Daily Observations layout. Learn more.

Left ArrowRight Arrow

34.02893, -84.19858

Hourly Observations for March 6, 2022

Temp ( °F °C ) Dew Point ( °F °C ) Humidity (%) Winds ( mph kmh ) Pressure ( in mb ) Visibility ( mi km ) Precip ( " mm )
12:53 am 00:53 Mostly Clear 63 17.2 55 12.8 76 76 VRB 6 9 30.26 1025 10 16 0.00 0.00
1:53 am 01:53 Clear 62 16.7 55 12.8 78 78 SSE 8 13 30.26 1025 10 16 0.00 0.00
2:53 am 02:53 Cloudy 61 16.1 55 12.8 81 81 SSE 6 9 30.25 1024 10 16 0.00 0.00
3:53 am 03:53 Clear 59 15 55 12.8 87 87 S 5 7 30.24 1024 10 16 0.00 0.00
4:53 am 04:53 Clear 57 13.9 55 12.8 93 93 SSE 3 6 30.25 1025 10 16 0.00 0.00
5:53 am 05:53 Mostly Clear 56 13.3 55 12.8 97 97 Calm 30.25 1025 10 16 0.00 0.00
6:53 am 06:53 Mostly Cloudy 57 13.9 55 12.8 93 93 SSE 3 6 30.27 1025 10 16 0.00 0.00
7:53 am 07:53 Mostly Cloudy 58 14.4 56 13.3 93 93 S 5 7 30.29 1026 10 16 0.00 0.00
8:53 am 08:53 Mostly Cloudy 62 16.7 56 13.3 80 80 S 6 9 30.30 1026 10 16 0.00 0.00
9:53 am 09:53 Mostly Cloudy 67 19.4 57 13.9 71 71 undefined N/A 30.29 1026 10 16 0.00 0.00
9:59 am 09:59 Mostly Cloudy 68 20 58 14.4 70 70 SSW 12 19 30.28 1026 10 16 0.00 0.00
10:53 am 10:53 Partly Cloudy 70 21.1 59 15 68 68 SSW 12 19 30.28 1026 10 16 0.00 0.00
11:53 am 11:53 Cloudy 72 22.2 58 14.4 61 61 SSW 15 24 30.27 1025 10 16 0.00 0.00
12:53 pm 12:53 Cloudy 73 22.8 59 15 62 62 SW 8 13 30.24 1024 10 16 0.00 0.00
1:53 pm 13:53 Mostly Cloudy 74 23.3 57 13.9 56 56 S 10 17 30.20 1023 10 16 0.00 0.00
2:53 pm 14:53 Partly Cloudy 78 25.6 56 13.3 47 47 SSW 15 24 30.17 1022 10 16 0.00 0.00
3:53 pm 15:53 Mostly Cloudy 76 24.4 54 12.2 47 47 SSW 10 17 30.16 1021 10 16 0.00 0.00
4:53 pm 16:53 Mostly Cloudy 75 23.9 55 12.8 50 50 VRB 6 9 30.16 1021 10 16 0.00 0.00
5:53 pm 17:53 Partly Cloudy 75 23.9 54 12.2 48 48 SSE 9 15 30.15 1021 10 16 0.00 0.00
6:53 pm 18:53 Clear 72 22.2 54 12.2 53 53 SSE 3 6 30.14 1021 10 16 0.00 0.00
7:53 pm 19:53 Clear 70 21.1 54 12.2 57 57 SE 5 7 30.14 1021 10 16 0.00 0.00
8:53 pm 20:53 Clear 68 20 54 12.2 61 61 SSE 5 7 30.13 1020 10 16 0.00 0.00
9:53 pm 21:53 Clear 68 20 54 12.2 61 61 SSE 5 7 30.12 1020 10 16 0.00 0.00
10:53 pm 22:53 Clear 67 19.4 53 11.7 61 61 SSE 5 7 30.11 1020 10 16 0.00 0.00
11:53 pm 23:53 Clear 66 18.9 53 11.7 63 63 S 5 7 30.10 1019 10 16 0.00 0.00

Powered by AerisWeather